Location: Irma
(52.9170°N, 111.2330°W)
Time: 08:15:47
(UTC-06:00)

Cosmos 1633 Rocket - Visible Passes

Search period start: 01 October 2014 00:00
Search period end: 11 October 2014 00:00
Orbit: 608 x 626 km, 82.5° (Epoch: 30 September)

Date Brightness Start Highest point End Pass type
(mag) Time Alt. Az. Time Alt. Az. Time Alt. Az.
01 Oct 6.6 20:55:16 10° WNW 20:56:35 11° W 20:57:54 10° W visible
02 Oct 4.3 19:32:05 10° NNW 19:36:18 48° W 19:40:30 10° SSW visible
03 Oct 7.0 06:35:49 10° E 06:36:19 10° ENE 06:36:49 10° ENE visible
03 Oct 5.4 19:49:12 10° NNW 19:53:00 29° W 19:56:46 10° SSW visible
04 Oct 6.4 06:50:02 10° ESE 06:52:49 17° E 06:55:37 10° NE visible
04 Oct 6.3 20:06:36 10° NW 20:09:36 18° W 20:12:36 10° SW visible
05 Oct 6.8 20:24:47 10° WNW 20:26:07 11° W 20:27:27 10° W visible
07 Oct 7.0 06:05:19 10° E 06:05:51 10° ENE 06:06:22 10° ENE visible
07 Oct 5.5 19:18:43 10° NNW 19:22:31 29° W 19:26:19 10° SSW visible
08 Oct 6.4 06:19:33 10° ESE 06:22:21 17° E 06:25:08 10° NE visible
08 Oct 6.3 19:36:07 10° NW 19:39:07 18° W 19:42:08 10° SW visible
09 Oct 5.5 06:35:17 10° SE 06:38:56 27° E 06:42:36 10° NNE visible
09 Oct 6.8 19:54:17 10° WNW 19:55:38 11° W 19:56:59 10° W visible
10 Oct 4.4 06:51:29 10° SSE 06:55:36 44° E 06:59:45 10° NNE visible
